EW3770 Weather Reports


Display with metric or nautical units.
time (UTC)temp
F
wind
direction
speed
MPH
gust
MPH
rain 1hr
in
rain 24hr
in
rain mn
in
humidity
%
barometer
mb
20260510194503 78 134 3.0 10.0 0.00 0.00 0.00 16 1027.4
20260510193603 78 112 2.0 9.0 0.00 0.00 0.00 14 1027.4
20260510192703 78 91 3.0 9.0 0.00 0.00 0.00 17 1027.4
20260510191803 77 124 3.0 10.0 0.00 0.00 0.00 16 1027.4
20260510190903 77 115 4.0 12.0 0.00 0.00 0.00 17 1027.4
20260510190003 78 131 2.0 12.0 0.00 0.00 0.00 17 1027.4
20260510185403 77 101 3.0 12.0 0.00 0.00 0.00 18 1027.4
20260510184504 77 116 2.0 7.0 0.00 0.00 0.00 16 1027.4
20260510183603 76 120 3.0 7.0 0.00 0.00 0.00 18 1027.4
20260510182703 76 124 2.0 8.0 0.00 0.00 0.00 18 1027.4
20260510181803 75 132 3.0 11.0 0.00 0.00 0.00 19 1027.4
20260510180924 75 117 4.0 11.0 0.00 0.00 0.00 20 1027.4
20260510180004 75 124 2.0 10.0 0.00 0.00 0.00 24 1027.4
20260510175404 74 115 2.0 10.0 0.00 0.00 0.00 20 1027.4
20260510174525 74 100 5.0 11.0 0.00 0.00 0.00 19 1027.4
20260510173603 74 34 4.0 11.0 0.00 0.00 0.00 20 1027.4
20260510172703 73 126 5.0 12.0 0.00 0.00 0.00 22 1027.4
20260510171803 73 125 3.0 12.0 0.00 0.00 0.00 22 1027.4
20260510170924 73 130 4.0 12.0 0.00 0.00 0.00 23 1027.4
20260510170024 74 132 2.0 9.0 0.00 0.00 0.00 25 1027.4
20260510165424 74 135 1.0 9.0 0.00 0.00 0.00 25 1027.4
20260510164503 74 131 2.0 6.0 0.00 0.00 0.00 27 1027.4
20260510163603 72 120 1.0 6.0 0.00 0.00 0.00 28 1027.4
20260510162703 70 114 1.0 8.0 0.00 0.00 0.00 30 1027.4
20260510161803 69 130 3.0 10.0 0.00 0.00 0.00 27 1027.4
20260510160903 68 136 2.0 9.0 0.00 0.00 0.00 28 1027.4
20260510160003 68 222 2.0 9.0 0.00 0.00 0.00 28 1027.4
20260510155403 68 180 2.0 8.0 0.00 0.00 0.00 28 1027.4
20260510154503 67 148 3.0 9.0 0.00 0.00 0.00 27 1027.4
20260510153624 67 137 2.0 6.0 0.00 0.00 0.00 29 1027.4
20260510152703 67 145 3.0 13.0 0.00 0.00 0.00 26 1027.4
20260510151824 66 134 2.0 10.0 0.00 0.00 0.00 26 1027.4
20260510150904 66 140 3.0 11.0 0.00 0.00 0.00 28 1027.4
20260510150004 66 133 2.0 8.0 0.00 0.00 0.00 28 1027.4
20260510145404 66 98 1.0 8.0 0.00 0.00 0.00 29 1027.4
20260510144503 65 59 1.0 7.0 0.00 0.00 0.00 30 1027.4
20260510143603 64 3 1.0 4.0 0.00 0.00 0.00 32 1027.4
20260510142705 63 360 1.0 4.0 0.00 0.00 0.00 36 1027.4
20260510141803 63 360 1.0 6.0 0.00 0.00 0.00 38 1027.4
20260510140904 62 360 1.0 5.0 0.00 0.00 0.00 41 1027.4
20260510140004 62 360 1.0 6.0 0.00 0.00 0.00 42 1027.4
20260510135404 62 360 1.0 6.0 0.00 0.00 0.00 42 1027.4
20260510134504 61 360 1.0 5.0 0.00 0.00 0.00 40 1027.4
20260510133624 60 360 1.0 3.0 0.00 0.00 0.00 36 1027.4
20260510132703 58 360 0.0 3.0 0.00 0.00 0.00 37 1027.4
20260510131804 56 360 0.0 2.0 0.00 0.00 0.00 39 1027.4
20260510130903 54 0 0.0 0.0 0.00 0.00 0.00 43 1027.4
20260510130004 51 0 0.0 0.0 0.00 0.00 0.00 45 1027.4
20260510125424 50 0 0.0 0.0 0.00 0.00 0.00 46 1027.4
20260510124503 49 0 0.0 0.0 0.00 0.00 0.00 46 1027.4
20260510123605 49 360 0.0 1.0 0.00 0.00 0.00 45 1027.4
20260510122704 50 360 0.0 2.0 0.00 0.00 0.00 46 1027.4
20260510121803 50 360 1.0 2.0 0.00 0.00 0.00 44 1027.4
20260510120903 49 360 0.0 2.0 0.00 0.00 0.00 44 1027.4
20260510120003 49 360 2.0 5.0 0.00 0.00 0.00 44 1027.4
20260510115404 49 360 2.0 5.0 0.00 0.00 0.00 46 1027.4
20260510114524 48 360 3.0 4.0 0.00 0.00 0.00 46 1027.4
20260510113603 48 360 2.0 4.0 0.00 0.00 0.00 47 1027.4
20260510112703 49 360 1.0 2.0 0.00 0.00 0.00 45 1027.4
20260510111824 49 360 1.0 3.0 0.00 0.00 0.00 45 1027.4
20260510110903 49 0 0.0 0.0 0.00 0.00 0.00 46 1027.4
20260510110004 49 0 0.0 0.0 0.00 0.00 0.00 43 1027.4
20260510105424 49 0 0.0 0.0 0.00 0.00 0.00 44 1027.4
20260510104503 49 0 0.0 0.0 0.00 0.00 0.00 44 1027.4
20260510103624 49 0 0.0 0.0 0.00 0.00 0.00 43 1027.4
20260510102703 49 0 0.0 0.0 0.00 0.00 0.00 43 1027.4
20260510101803 50 0 0.0 0.0 0.00 0.00 0.00 43 1027.4
20260510100903 50 0 0.0 0.0 0.00 0.00 0.00 41 1027.4
20260510100004 50 0 0.0 0.0 0.00 0.00 0.00 42 1027.4
20260510095403 50 0 0.0 0.0 0.00 0.00 0.00 43 1027.4
20260510094503 50 0 0.0 0.0 0.00 0.00 0.00 43 1027.4
20260510093603 51 0 0.0 0.0 0.00 0.00 0.00 43 1027.4
20260510092703 51 0 0.0 0.0 0.00 0.00 0.00 43 1027.4
20260510091803 52 0 0.0 0.0 0.00 0.00 0.00 42 1027.4
20260510090903 52 0 0.0 0.0 0.00 0.00 0.00 38 1027.4
20260510090003 52 360 0.0 1.0 0.00 0.00 0.00 37 1027.4
20260510085403 52 360 0.0 1.0 0.00 0.00 0.00 37 1027.4
20260510084503 52 360 0.0 1.0 0.00 0.00 0.00 38 1027.4
20260510083624 52 360 0.0 1.0 0.00 0.00 0.00 38 1027.4
20260510082724 52 0 0.0 0.0 0.00 0.00 0.00 38 1027.4
20260510081803 52 360 0.0 2.0 0.00 0.00 0.00 38 1027.4
20260510080904 53 0 0.0 0.0 0.00 0.00 0.00 36 1027.4
20260510080024 53 0 0.0 0.0 0.00 0.00 0.00 35 1027.4
20260510075403 54 0 0.0 0.0 0.00 0.00 0.00 35 1027.4
20260510074503 54 0 0.0 0.0 0.00 0.00 0.00 36 1027.4
20260510073603 55 0 0.0 0.0 0.00 0.00 0.00 33 1027.4
20260510072703 56 0 0.0 0.0 0.00 0.00 0.00 32 1027.4
20260510071803 56 0 0.0 0.0 0.00 0.00 0.00 30 1027.4
20260510070903 57 0 0.0 0.0 0.00 0.00 0.00 29 1027.4
20260510070024 57 360 0.0 2.0 0.00 0.00 0.00 29 1027.4
20260510065403 57 360 0.0 2.0 0.00 0.00 0.00 28 1027.4
20260510064503 57 360 0.0 1.0 0.00 0.00 0.00 29 1027.4
20260510063603 57 360 0.0 1.0 0.00 0.00 0.00 29 1027.4
20260510062703 57 360 0.0 1.0 0.00 0.00 0.00 29 1027.4
20260510061803 57 0 0.0 0.0 0.00 0.00 0.00 29 1027.4
20260510060903 57 360 0.0 1.0 0.00 0.00 0.00 29 1027.4
20260510060003 57 360 0.0 1.0 0.00 0.00 0.00 30 1027.4
20260510055424 57 360 0.0 1.0 0.00 0.00 0.00 29 1027.4
20260510054503 57 360 1.0 3.0 0.00 0.00 0.00 29 1027.4
20260510053603 58 360 0.0 2.0 0.00 0.00 0.00 29 1027.4
20260510052703 58 360 0.0 2.0 0.00 0.00 0.00 28 1027.4
20260510051803 58 360 0.0 2.0 0.00 0.00 0.00 28 1027.4
20260510050903 58 360 0.0 1.0 0.00 0.00 0.00 28 1027.4
20260510050004 58 360 0.0 1.0 0.00 0.00 0.00 28 1027.4
20260510045403 59 360 0.0 2.0 0.00 0.00 0.00 28 1027.4
20260510044503 59 360 0.0 2.0 0.00 0.00 0.00 29 1027.4
20260510043603 59 360 0.0 4.0 0.00 0.00 0.00 27 1027.4
20260510042703 60 360 1.0 4.0 0.00 0.00 0.00 27 1027.4
20260510041804 60 360 2.0 3.0 0.00 0.00 0.00 28 1027.4
20260510040903 61 360 1.0 3.0 0.00 0.00 0.00 28 1027.4
20260510040004 62 360 0.0 3.0 0.00 0.00 0.00 27 1027.4
20260510035424 62 0 0.0 0.0 0.00 0.00 0.00 26 1027.4
20260510034503 63 360 0.0 2.0 0.00 0.00 0.00 25 1027.4
20260510033603 64 0 0.0 0.0 0.00 0.00 0.00 24 1027.4
20260510032703 64 360 0.0 1.0 0.00 0.00 0.00 23 1027.4
20260510031803 65 360 0.0 2.0 0.00 0.00 0.00 23 1027.4
20260510030903 65 360 0.0 2.0 0.00 0.00 0.00 23 1027.4
20260510030003 66 360 1.0 4.0 0.00 0.00 0.00 22 1027.4
20260510025424 67 360 0.0 4.0 0.00 0.00 0.00 21 1027.4
20260510024503 68 0 0.0 0.0 0.00 0.00 0.00 19 1027.4
20260510023603 69 0 0.0 0.0 0.00 0.00 0.00 18 1027.4
20260510022703 70 0 0.0 0.0 0.00 0.00 0.00 16 1027.4
20260510021824 70 0 0.0 0.0 0.00 0.00 0.00 16 1027.4
20260510020924 70 8 1.0 5.0 0.00 0.00 0.00 15 1027.4
20260510020003 71 38 2.0 6.0 0.00 0.00 0.00 15 1027.4
20260510015403 71 43 2.0 6.0 0.00 0.00 0.00 15 1027.4
20260510014503 71 22 2.0 8.0 0.00 0.00 0.00 14 1027.4
20260510013603 72 34 3.0 6.0 0.00 0.00 0.00 14 1027.4
20260510012703 72 23 2.0 8.0 0.00 0.00 0.00 15 1027.4
20260510011803 72 41 3.0 11.0 0.00 0.00 0.00 14 1027.4
20260510010924 72 38 3.0 9.0 0.00 0.00 0.00 13 1027.4
20260510010003 73 36 5.0 11.0 0.00 0.00 0.00 13 1027.4
20260510005403 73 44 5.0 11.0 0.00 0.00 0.00 13 1027.4
20260510004503 73 17 4.0 10.0 0.00 0.00 0.00 14 1027.4
20260510003624 74 15 3.0 10.0 0.00 0.00 0.00 14 1027.4
20260510002703 74 12 4.0 11.0 0.00 0.00 0.00 14 1027.4
20260510001824 74 15 3.0 9.0 0.00 0.00 0.00 13 1027.4
20260510000903 74 338 4.0 9.0 0.00 0.00 0.00 14 1027.4
20260510000003 74 341 4.0 14.0 0.00 0.00 0.00 14 1027.4
20260509235403 74 343 5.0 13.0 0.00 0.00 0.00 13 1027.4
20260509234503 74 334 5.0 11.0 0.00 0.00 0.00 14 1027.4
20260509233603 73 355 6.0 15.0 0.00 0.00 0.00 13 1027.4
20260509232703 74 334 5.0 15.0 0.00 0.00 0.00 14 1027.4
20260509231824 73 342 7.0 13.0 0.00 0.00 0.00 14 1027.4
20260509230903 73 346 7.0 15.0 0.00 0.00 0.00 13 1027.4
20260509230003 73 339 7.0 16.0 0.00 0.00 0.00 14 1027.4
20260509225403 73 336 8.0 15.0 0.00 0.00 0.00 13 1027.4
20260509224503 74 326 8.0 15.0 0.00 0.00 0.00 13 1027.4
20260509223603 73 333 8.0 17.0 0.00 0.00 0.00 16 1027.4
20260509222703 73 355 8.0 17.0 0.00 0.00 0.00 15 1027.4
20260509221803 73 335 7.0 16.0 0.00 0.00 0.00 15 1027.4
20260509220903 73 340 8.0 18.0 0.00 0.00 0.00 15 1027.4
20260509220004 73 1 6.0 14.0 0.00 0.00 0.00 14 1027.4
20260509215403 73 345 7.0 13.0 0.00 0.00 0.00 14 1027.4
20260509214504 73 329 8.0 18.0 0.00 0.00 0.00 14 1027.4
20260509213603 73 344 7.0 16.0 0.00 0.00 0.00 15 1027.4
20260509212703 73 333 6.0 15.0 0.00 0.00 0.00 14 1027.4
20260509211803 73 353 6.0 13.0 0.00 0.00 0.00 18 1027.4
20260509210904 72 360 5.0 12.0 0.00 0.00 0.00 18 1027.4
20260509210003 72 340 5.0 11.0 0.00 0.00 0.00 18 1027.4
20260509205403 72 355 5.0 13.0 0.00 0.00 0.00 18 1027.4
20260509204503 72 350 5.0 13.0 0.00 0.00 0.00 18 1027.4
20260509203603 72 355 5.0 12.0 0.00 0.00 0.00 17 1027.4
20260509202703 72 345 4.0 12.0 0.00 0.00 0.00 17 1027.4
20260509201803 71 358 7.0 12.0 0.00 0.00 0.00 20 1027.4
20260509200903 72 7 6.0 17.0 0.00 0.00 0.00 22 1027.4
20260509200004 72 346 5.0 14.0 0.00 0.00 0.00 19 1027.4
20260509195403 72 356 4.0 11.0 0.00 0.00 0.00 22 1027.4